Wind_Speed
37 32 30 37 48 57 57 57 53 51 70 56 33 29 34 35 32 34 33 35 35 31 32 29 32 30 30 33 34 37 37 38 37 36 36 35 34 34 33 34 35 36 37
37 31 36 46 56 55 64 63 67 61 61 55 40 31 30 37 27 28 27 33 30 30 26 29 30 28 30 32 33 35 37 37 38 36 37 37 38 38 38 40 41 43 45
44 40 42 52 62 61 67 66 61 53 48 42 41 33 31 36 31 33 32 31 30 26 27 28 28 27 28 29 34 34 36 39 38 39 41 42 42 44 46 47 49 51 53
45 49 52 59 67 65 68 64 53 49 43 41 40 35 33 37 36 29 29 29 28 24 27 27 26 27 31 32 34 35 39 41 41 44 45 46 47 48 50 52 54 56 58
48 51 58 67 71 70 70 63 53 51 47 46 41 36 34 33 29 24 24 25 23 25 26 25 26 29 32 32 34 38 42 42 45 46 47 50 51 53 55 59 63 66 68
53 54 65 73 78 77 74 67 54 53 48 44 44 40 37 35 27 25 24 23 22 25 24 25 26 29 30 34 38 39 40 43 45 49 51 53 55 60 64 68 71 72 76
53 62 67 77 80 77 78 69 65 53 45 46 47 42 36 33 27 25 22 20 24 24 23 25 27 28 31 35 36 38 41 44 47 50 54 59 64 67 70 73 74 74 74
55 64 69 74 80 79 81 71 68 55 46 48 47 42 38 32 27 25 20 21 24 22 23 24 24 27 31 32 36 39 42 45 49 54 60 64 68 71 71 71 71 70 69
57 61 71 73 79 81 77 71 68 58 49 48 44 42 37 31 26 22 20 22 22 21 21 21 23 27 28 33 36 39 42 47 53 60 64 65 66 66 65 63 61 60 60
59 64 75 77 80 83 77 75 65 53 45 47 45 43 35 32 26 21 22 23 19 18 20 21 23 25 29 32 36 39 44 51 57 58 57 58 60 59 59 58 57 57 57
62 65 75 78 79 77 80 75 63 54 50 49 44 39 34 29 25 22 24 21 17 17 18 19 22 26 29 32 36 41 48 53 54 54 57 60 62 62 61 58 57 57 55
65 66 72 77 76 71 78 73 57 53 50 43 38 36 31 29 25 23 23 17 16 16 16 19 23 25 29 32 38 45 50 50 52 56 57 60 61 62 57 56 55 54 53
69 68 69 78 72 68 68 65 58 56 53 46 38 36 31 29 23 24 20 15 15 14 16 20 22 26 29 34 41 46 47 51 54 57 58 61 63 61 57 55 54 54 55
69 68 68 74 71 64 64 59 59 55 52 44 37 32 31 26 26 23 16 14 12 14 17 19 22 27 30 38 42 44 48 54 57 59 59 62 65 62 59 56 53 52 51
67 67 69 66 71 64 60 60 60 53 44 40 33 32 30 27 25 18 14 12 12 14 15 18 23 27 33 39 42 46 50 55 59 60 60 61 64 64 60 55 54 53 51
65 65 69 65 64 62 62 58 53 50 46 39 33 33 29 28 22 16 13 11 11 12 14 18 23 28 34 38 41 47 51 54 57 59 60 60 64 64 62 58 57 55 53
66 62 60 61 62 66 60 59 58 48 45 36 35 31 31 25 20 17 13 10 9 11 14 18 22 30 34 37 42 47 52 52 55 58 61 62 64 66 66 62 61 59 56
63 66 65 61 62 68 63 58 51 48 44 38 35 35 30 26 22 18 12 9 8 10 13 17 24 30 32 38 43 46 51 51 54 57 61 64 67 68 69 67 65 61 59
67 69 66 63 60 61 58 54 52 48 42 39 38 36 31 25 20 16 11 7 7 10 12 18 25 29 31 36 43 47 50 50 53 57 60 64 68 70 72 71 69 65 62
70 67 65 63 62 61 59 56 52 46 41 37 36 31 29 26 20 15 9 5 6 9 12 19 25 28 31 35 41 45 48 50 53 56 59 62 66 69 72 73 72 70 66
68 69 68 65 62 57 54 51 50 45 45 43 37 33 27 22 18 12 8 4 5 8 13 20 24 27 31 35 39 43 46 48 51 55 59 61 63 68 69 72 74 72 69
70 68 68 63 59 55 53 53 50 47 47 44 37 32 28 23 17 11 7 4 4 7 14 20 23 27 31 35 38 41 43 46 49 53 57 60 62 64 68 68 71 73 72
71 71 67 65 58 57 53 53 50 47 47 42 37 32 27 20 15 11 7 4 2 6 13 18 22 26 30 33 38 40 42 45 48 51 55 58 60 63 63 67 67 70 72
73 70 68 69 59 56 55 53 50 47 47 41 36 30 24 20 16 11 7 4 2 6 12 17 22 26 28 31 36 39 41 44 46 49 52 55 60 62 62 63 66 66 69
68 66 68 63 55 55 55 53 50 48 48 41 34 29 25 21 17 12 8 4 2 5 11 16 21 24 26 31 34 37 40 44 45 47 50 52 56 60 60 60 62 64 65
67 64 63 60 58 59 56 54 50 52 48 40 36 31 26 22 17 12 8 5 3 4 9 15 20 23 24 29 34 37 40 43 45 46 48 51 53 56 57 57 59 61 61
Wind_Direction
228 217 203 184 168 168 174 174 169 178 198 214 224 229 243 242 226 234 235 242 245 256 264 268 270 272 285 295 294 299 305 311 312 311 312 311 309 306 303 301 300 297 294
212 204 201 179 171 176 181 184 183 191 204 205 210 205 221 237 216 217 238 241 246 257 260 268 270 277 290 292 293 299 305 308 309 310 310 308 306 304 302 300 298 295 293
211 195 192 181 178 180 185 187 189 196 200 205 205 202 207 217 211 220 231 236 245 254 264 269 270 282 292 285 295 299 302 305 307 308 309 307 305 304 304 302 300 298 295
208 196 187 184 180 183 190 190 192 197 200 202 202 197 208 222 219 221 232 237 242 251 263 268 275 289 286 286 293 297 302 305 305 308 310 309 307 305 303 300 297 294 292
208 201 190 182 180 186 188 187 196 199 202 202 201 199 210 221 211 217 225 235 244 259 266 271 281 287 286 286 295 297 301 303 308 311 310 308 306 305 302 299 296 294 292
207 201 189 184 184 188 188 188 191 199 204 202 203 204 217 208 208 217 226 239 254 261 267 274 283 287 287 291 295 298 303 307 310 310 311 308 305 303 301 298 296 294 293
196 190 188 184 186 188 191 190 197 198 197 199 202 205 211 205 211 221 228 242 257 261 270 277 287 290 288 292 298 303 308 311 312 311 310 309 306 303 302 299 297 296 295
188 187 189 187 186 190 192 196 201 196 187 193 202 205 207 203 212 219 235 252 258 263 273 284 290 286 290 297 303 308 312 313 314 312 311 308 306 304 303 301 300 297 295
185 185 186 188 185 193 194 198 201 201 191 197 202 206 204 207 214 224 241 251 255 267 280 287 286 290 297 305 311 312 314 317 316 314 314 311 309 307 305 304 303 303 302
186 186 186 188 188 194 198 201 201 198 198 201 203 209 209 209 213 224 242 253 257 271 281 285 291 299 309 312 312 316 320 318 320 320 320 320 319 319 318 316 313 312 310
184 184 187 186 189 194 198 202 204 202 198 202 210 207 200 207 215 228 240 245 258 269 280 290 299 309 312 313 318 322 322 324 327 331 333 330 329 328 326 324 320 317 315
179 182 185 185 191 191 198 200 195 187 188 189 191 195 198 206 213 227 237 241 255 269 285 295 306 311 315 320 325 326 329 333 338 341 340 339 336 333 330 328 325 323 321
180 181 184 186 190 193 193 196 187 186 188 192 199 203 199 204 216 227 228 239 255 275 289 300 309 316 322 326 329 333 339 345 347 347 347 347 342 341 338 335 334 332 330
179 176 181 188 188 189 191 189 184 187 189 194 196 193 197 204 215 225 223 240 259 278 293 304 314 324 329 332 336 341 347 351 351 350 351 351 349 347 346 345 343 340 338
182 177 179 183 188 186 184 183 187 190 190 189 190 191 194 206 218 211 223 238 261 283 296 311 322 330 334 339 343 347 351 352 351 353 355 356 355 354 354 353 351 349 347
183 175 180 182 183 180 178 182 184 184 186 185 187 188 197 207 207 205 220 236 264 283 305 320 330 336 340 346 350 353 354 352 353 355 359 0 2 1 0 0 360 358 358
170 170 173 177 175 176 177 181 183 187 184 184 184 189 200 207 197 203 213 236 263 293 318 328 334 341 347 350 353 356 356 357 358 359 3 5 8 9 6 6 7 6 6
175 166 164 170 173 178 182 182 190 185 182 183 184 193 197 193 193 204 213 235 272 310 323 333 341 348 352 351 354 360 360 1 4 3 7 10 11 13 14 13 12 12 12
165 163 164 169 173 180 183 187 182 181 182 182 188 191 192 189 194 200 211 232 283 318 326 340 346 352 353 352 354 1 2 3 7 7 7 11 12 14 17 18 17 17 18
163 164 167 169 170 173 178 180 180 181 180 186 190 193 191 186 191 199 204 235 298 318 331 347 348 352 353 354 357 1 3 6 10 11 11 13 15 15 17 20 22 21 21
163 166 166 169 170 172 172 175 179 178 181 184 185 185 187 188 192 195 193 233 300 321 343 351 350 353 353 355 359 359 3 6 10 13 14 14 17 18 18 20 23 25 24
166 171 170 172 170 170 171 176 176 180 183 182 183 181 181 186 189 187 192 234 299 328 352 352 353 354 356 359 359 1 3 6 9 13 15 16 17 19 20 21 23 25 27
170 174 175 175 173 172 172 175 179 180 182 186 183 184 182 180 182 185 194 229 276 347 358 357 356 355 359 1 1 2 4 7 10 12 16 18 18 19 20 22 23 25 28
177 178 179 178 177 176 175 177 180 180 183 187 188 182 177 180 184 186 197 225 225 4 2 3 0 359 3 4 4 3 6 9 12 13 16 18 20 18 20 22 25 26 28
181 180 180 181 183 180 178 178 179 182 184 186 184 184 181 182 185 185 197 219 204 16 10 8 7 4 8 8 6 6 6 11 11 11 14 17 19 20 20 22 25 26 28
181 184 181 183 183 182 180 180 183 184 186 185 183 187 185 186 185 186 196 203 184 24 11 11 11 9 12 11 10 9 11 13 14 14 14 14 18 21 21 22 24 26 27
Height
10466 10475 10483 10495 10504 10516 10526 10538 10542 10551 10562 10567 10575 10582 10589 10597 10600 10607 10613 10617 10620 10622 10623 10623 10622 10621 10619 10616 10614 10611 10607 10601 10595 10590 10585 10579 10574 10569 10565 10560 10555 10551 10547
10455 10465 10476 10486 10494 10504 10514 10523 10532 10541 10549 10554 10567 10574 10581 10590 10595 10599 10606 10610 10613 10615 10616 10616 10615 10613 10611 10609 10608 10604 10600 10594 10589 10583 10577 10571 10565 10561 10556 10551 10546 10541 10536
10443 10453 10467 10475 10485 10495 10504 10515 10525 10534 10541 10548 10558 10567 10574 10583 10589 10594 10599 10603 10606 10608 10609 10608 10607 10606 10604 10603 10601 10597 10592 10587 10581 10574 10568 10562 10556 10551 10545 10539 10533 10527 10521
10432 10441 10450 10464 10475 10487 10498 10510 10520 10527 10534 10543 10553 10562 10571 10580 10584 10590 10594 10597 10600 10602 10602 10602 10601 10600 10599 10597 10594 10590 10585 10579 10572 10566 10559 10553 10546 10539 10533 10527 10520 10513 10506
10417 10432 10442 10457 10467 10476 10489 10502 10513 10520 10528 10540 10551 10561 10570 10577 10582 10585 10588 10591 10594 10595 10596 10596 10596 10594 10593 10591 10588 10583 10577 10571 10564 10557 10550 10543 10535 10527 10518 10510 10502 10493 10485
10404 10420 10432 10444 10456 10467 10482 10494 10506 10513 10524 10537 10549 10559 10567 10574 10577 10581 10584 10587 10589 10590 10592 10592 10591 10589 10588 10585 10581 10576 10571 10563 10555 10548 10540 10531 10522 10512 10501 10490 10480 10471 10459
10396 10409 10421 10435 10450 10466 10476 10489 10498 10510 10524 10537 10547 10557 10564 10569 10573 10577 10580 10583 10585 10586 10587 10587 10586 10584 10582 10579 10575 10569 10562 10554 10546 10538 10528 10517 10505 10493 10481 10468 10457 10446 10436
10387 10402 10415 10430 10447 10461 10473 10484 10494 10507 10522 10533 10543 10551 10559 10564 10568 10573 10577 10579 10581 10583 10584 10583 10581 10579 10577 10573 10568 10561 10554 10546 10538 10528 10515 10502 10488 10474 10460 10446 10434 10422 10410
10382 10394 10410 10426 10441 10453 10468 10478 10490 10504 10520 10529 10539 10548 10555 10560 10565 10570 10573 10575 10578 10580 10580 10578 10576 10575 10571 10567 10561 10554 10547 10538 10526 10514 10500 10485 10469 10454 10440 10427 10413 10401 10389
10376 10389 10403 10418 10434 10448 10463 10475 10489 10503 10517 10526 10536 10546 10552 10557 10562 10567 10570 10573 10575 10576 10576 10574 10573 10570 10566 10560 10554 10548 10539 10528 10516 10502 10486 10469 10453 10437 10422 10407 10393 10380 10368
10371 10384 10399 10414 10429 10445 10459 10473 10489 10503 10514 10523 10533 10542 10548 10555 10560 10565 10568 10570 10573 10573 10572 10571 10569 10566 10561 10555 10549 10541 10530 10519 10505 10489 10473 10455 10439 10422 10405 10390 10376 10363 10351
10370 10381 10395 10411 10426 10442 10457 10472 10490 10501 10512 10522 10531 10538 10545 10552 10558 10562 10565 10569 10569 10570 10569 10568 10565 10561 10556 10550 10543 10533 10522 10509 10494 10480 10464 10446 10428 10411 10394 10377 10362 10348 10334
10362 10378 10392 10408 10426 10441 10457 10474 10487 10498 10510 10520 10528 10536 10543 10550 10555 10559 10563 10565 10566 10566 10566 10564 10561 10557 10551 10545 10536 10526 10514 10501 10487 10472 10457 10440 10419 10401 10383 10366 10350 10333 10317
10360 10375 10392 10409 10425 10442 10457 10473 10485 10496 10507 10516 10526 10534 10541 10548 10552 10557 10561 10562 10563 10564 10563 10561 10558 10553 10547 10540 10530 10519 10508 10495 10481 10467 10451 10433 10413 10393 10374 10358 10342 10326 10309
10363 10377 10392 10409 10426 10442 10457 10471 10483 10495 10505 10516 10524 10532 10540 10546 10551 10556 10558 10560 10561 10561 10560 10558 10554 10549 10543 10535 10525 10515 10503 10491 10477 10462 10446 10429 10409 10389 10370 10352 10336 10319 10301
10366 10381 10395 10409 10428 10443 10457 10471 10483 10493 10504 10514 10522 10531 10538 10544 10550 10553 10556 10558 10559 10559 10558 10555 10550 10545 10538 10530 10522 10512 10501 10488 10473 10458 10443 10427 10408 10387 10367 10348 10331 10313 10296
10368 10383 10398 10411 10428 10443 10457 10470 10483 10493 10504 10512 10521 10530 10536 10543 10548 10552 10555 10556 10557 10556 10555 10552 10547 10542 10535 10527 10519 10509 10498 10485 10472 10457 10442 10425 10407 10388 10367 10347 10330 10312 10294
10370 10383 10397 10413 10428 10443 10456 10469 10480 10490 10500 10510 10520 10529 10535 10541 10546 10550 10553 10554 10555 10554 10553 10549 10545 10539 10532 10525 10517 10507 10496 10484 10472 10457 10443 10426 10408 10390 10370 10349 10331 10314 10297
10375 10389 10403 10417 10430 10445 10456 10468 10480 10492 10502 10511 10518 10526 10533 10540 10545 10549 10551 10552 10553 10552 10550 10547 10542 10537 10531 10524 10515 10505 10496 10484 10472 10458 10443 10428 10410 10393 10374 10355 10336 10318 10302
10379 10393 10407 10420 10432 10444 10456 10469 10481 10492 10502 10512 10521 10528 10534 10538 10543 10547 10549 10550 10551 10550 10549 10545 10540 10535 10530 10523 10514 10505 10495 10485 10473 10460 10446 10431 10415 10397 10380 10362 10343 10325 10308
10384 10399 10410 10422 10435 10447 10458 10470 10481 10492 10501 10510 10519 10526 10533 10538 10542 10545 10547 10549 10549 10549 10547 10544 10539 10534 10529 10522 10513 10505 10496 10486 10475 10462 10450 10435 10420 10404 10387 10370 10353 10336 10319
10388 10400 10411 10424 10437 10447 10459 10470 10481 10491 10500 10509 10517 10525 10531 10536 10540 10544 10546 10547 10548 10548 10546 10543 10538 10534 10528 10521 10513 10505 10497 10487 10476 10465 10453 10440 10425 10410 10396 10379 10364 10347 10330
10389 10401 10413 10425 10436 10446 10458 10469 10481 10490 10501 10510 10518 10524 10530 10535 10539 10543 10544 10546 10547 10547 10545 10542 10538 10534 10528 10521 10514 10506 10498 10489 10478 10467 10456 10445 10431 10417 10403 10389 10374 10359 10342
10388 10399 10411 10424 10436 10446 10457 10468 10479 10491 10501 10510 10517 10524 10529 10534 10539 10542 10544 10545 10546 10546 10545 10542 10538 10534 10528 10522 10515 10507 10499 10490 10480 10470 10460 10449 10437 10423 10410 10396 10383 10369 10354
10391 10402 10414 10426 10436 10446 10457 10468 10480 10490 10499 10508 10516 10523 10527 10533 10537 10540 10543 10545 10546 10546 10544 10542 10539 10534 10529 10523 10516 10509 10501 10493 10483 10474 10464 10453 10441 10429 10416 10403 10392 10379 10366
10394 10405 10414 10424 10435 10445 10457 10468 10479 10487 10497 10506 10514 10520 10527 10532 10536 10539 10542 10544 10545 10545 10544 10542 10539 10535 10530 10525 10519 10512 10504 10495 10486 10477 10467 10457 10447 10436 10425 10412 10400 10389 10377